Tracking 29892 objects as of 21-Nov-2024
HD Live streaming from Space Station
objects crossing your sky now

H-2A R/B

Track H-2A R/B now!


NORAD ID: 42918
Int'l Code: 2017-048B
Perigee: 278.3 km
Apogee: 34,093.5 km
Inclination: 19.7 °
Period: 599.7 minutes
Semi major axis: 23556 km
RCS: Unknown
Launch date: August 19, 2017
Source: Japan (JPN)
Launch site: TANEGASHIMA SPACE CENTER (TNSTA)

Note: This is a ROCKET BODY
Your satellite tracking list
Your tracking list is empty




NASA's NSSDC Master Catalog

Two Line Element Set (TLE):
1 42918U 17048B   24325.33785288  .00005899  00000-0  23362-2 0  9993
2 42918  19.6619 108.8741 7177339 297.6673   8.5671  2.40118857 61903
Source of the keplerian elements: AFSPC